FENGYUN 1C DEB, 32187

Orbit data source: Space-Track

FENGYUN 1C DEB, 32187 is space debris in SSO originally from a launch on Mon, 10 May 1999 UTC launched from the Taiyaun Space Center, China (TSC). Fengyun 1C debris stems from the Chinese weather satellite Fengyun-1C, which was intentionally destroyed by a Chinese anti-satellite missile in 2007. This event dramatically increased the amount of space debris, with thousands of trackable fragments posing hazards to satellites and human spaceflight. The Fengyun 1C debris cloud has become a focal point in discussions about space sustainability and the need for international regulations to prevent the creation of new debris.

Loading next visibility...
Identifier
32187, 1999-025CUH
Orbit
SSO
Country
Flag of CNCN / PRC
Related business
Manufacturer
Unknown
Mission
Spacecraft
Bus & Motor
Unknown
Mass
Unknown
Launch date (UTC)
1999-05-10 (27 years ago)
Launch vehicle
Unknown
Launch site
Taiyaun Space Center, China (TSC)
Object type
Payload
Rocket body
Debris
Shape & HBR
Unknown shape, 0.1 m
Radar Cross Section
Small (<0.1 m²)

Expand to show TLE details & history
Last TLE update: 2 days ago

TLE from 2 days ago
0 FENGYUN 1C DEB
1 32187U 99025CUH 26102.70561387  .00000227  00000-0  32134-3 0  9991
2 32187  99.4901 181.3380 0293243 202.7447 312.0988 13.50579359678917
Epoch: 2026-04-12T16:56Z
TLE epoch observation values (Epoch: 2026-04-12T16:56:05.038Z)
Latitude
27.3412°
Longitude
-88.65741°
Altitude
930.549 km
Speed
7.459 km/s
True Right ascension
00h 25m 04s
True Declination
27° 12' 16"
Sunlit
Object was in daylight at epoch
Visualization orbit readout
Latitude
Unknown
Longitude
Unknown
Altitude
Unknown
Speed
Unknown
Apparent Right ascension
Unknown
Apparent Declination
Unknown
Sunlit
N/A
Visualization observer readout
Local Sidereal Time
02:33:03
Azimuth
Unknown
Elevation
Unknown
Doppler factor
Unknown
Orbital elements
Apogee altitude
1,285.75 km
Perigee altitude
849.079 km
Semi-major axis
7,445.551 km
Eccentricity
0.02932
Inclination
99.4901°
RAAN
181.338°
Arg. of periapsis
202.7447°
True anomaly
309.54358°
Mean anomaly
312.0988°
Eccentric anomaly
310.82745°
Mean motion
3.3783 °/min
Orbital period
106.56 mins
BSTAR
0.00032134
Loading maneuver chart data...
Computing Atmospheric mass density...
Loading historical data...
Loading historical data...
Loading historical data...
Loading historical data...
Loading historical data...
Loading historical data...
Loading historical data...

Documentation

Showing up to 5 results
|